Location: Shepherdstown, WV
(39.4326°N, 77.8042°W)
Time: 04:10:29
(UTC-04:00)

Vanguard 1 - Pass Details

Date: 03 October 2021
Orbit: 653 x 3829 km, 34.2° (Epoch: 18 October)

Event Time Altitude Azimuth Distance (km) Brightness Sun altitude
Rises 19:27:04 0° 256° (WSW) 4,926 15.5 -8.0°
Reaches altitude 10° 19:29:42 10° 254° (WSW) 4,251 14.7 -8.5°
Maximum altitude 19:42:13 73° 172° (S) 2,888 12.3 -10.9°
Enters shadow 20:00:41 16° 95° (E) 6,187 13.4 -14.5°
